CDT,Max TemperatureF,Mean TemperatureF,Min TemperatureF,Max Dew PointF,MeanDew PointF,Min DewpointF,Max Humidity, Mean Humidity, Min Humidity, Max Sea Level PressureIn, Mean Sea Level PressureIn, Min Sea Level PressureIn, Max VisibilityMiles, Mean VisibilityMiles, Min VisibilityMiles, Max Wind SpeedMPH, Mean Wind SpeedMPH, Max Gust SpeedMPH,PrecipitationIn, CloudCover, Events, WindDirDegrees
2012-10-1,78,69,60,72,67,61,100,94,74,29.73,29.60,29.50,10,8,3,17,6,26,0.71,7,Rain-Thunderstorm,168
2012-10-2,62,58,53,63,59,54,100,96,82,30.01,29.82,29.65,10,8,2,9,2,,0.00,6,Rain,251
2012-10-3,73,62,51,66,56,52,100,84,50,30.20,30.11,30.01,10,6,0,8,2,,0.00,4,Fog,168
2012-10-4,78,66,53,63,57,54,100,83,44,30.30,30.24,30.20,10,8,2,7,1,,0.00,0,,245
2012-10-5,80,66,53,63,57,54,100,80,42,30.23,30.13,30.01,10,8,1,10,2,,0.00,1,,195
2012-10-6,60,54,48,61,51,45,100,91,76,30.13,30.08,29.99,10,10,4,18,6,24,0.03,6,Rain-Thunderstorm,3
2012-10-7,59,52,44,45,43,36,100,78,42,30.22,30.14,30.09,10,10,4,13,7,16,0.07,4,Rain,2
2012-10-8,55,48,41,46,45,41,100,90,67,30.22,30.17,30.12,10,10,2,10,3,,0.17,6,Rain,5
2012-10-9,64,50,35,52,44,36,100,87,52,30.19,30.11,30.04,10,6,0,6,0,,0.00,4,Fog,201
2012-10-10,68,56,44,55,52,45,100,86,60,30.23,30.15,30.07,10,10,7,13,2,18,0.00,5,,328
2012-10-11,66,54,41,55,47,41,100,79,46,30.30,30.25,30.22,10,10,10,7,2,,0.00,4,,212
2012-10-12,68,62,57,66,60,54,100,94,77,30.30,30.26,30.20,10,8,1,12,2,,0.45,8,Rain-Thunderstorm,171
2012-10-13,77,68,60,63,61,57,100,78,57,30.30,30.22,30.15,10,10,2,15,5,23,0.00,5,,148
2012-10-14,73,68,62,68,62,55,100,81,64,30.18,30.06,29.94,10,10,7,21,12,29,0.23,5,Rain-Thunderstorm,175
2012-10-15,71,60,48,68,53,43,100,82,35,30.03,29.98,29.94,10,7,0,14,3,20,0.00,3,Fog,323
2012-10-16,71,56,42,55,49,43,100,77,40,30.03,29.96,29.88,10,10,7,6,1,,0.00,0,,207
2012-10-17,73,60,46,55,49,43,100,66,33,29.91,29.83,29.67,10,10,2,16,4,23,0.00,0,,153
2012-10-18,66,58,51,61,51,37,100,76,37,29.84,29.79,29.67,10,10,3,16,7,24,0.46,3,Rain-Thunderstorm,225
2012-10-19,68,58,48,45,40,36,76,55,30,29.86,29.79,29.74,10,9,5,18,8,26,0.00,3,,230
2012-10-20,64,52,41,50,45,41,100,79,49,30.01,29.94,29.86,10,10,10,10,1,,0.00,1,,280
2012-10-21,73,57,41,55,48,41,100,76,38,30.16,30.10,30.02,10,10,7,6,1,,0.00,0,,162
2012-10-22,78,64,51,59,53,48,100,72,36,30.22,30.15,30.11,10,10,10,9,1,,0.00,2,,188
2012-10-23,78,63,48,55,51,46,100,72,34,30.19,30.12,30.08,10,10,7,9,2,,0.00,0,,178
2012-10-24,77,60,44,59,52,45,100,81,41,30.18,30.12,30.06,10,10,5,7,1,,0.00,0,,185
2012-10-25,78,64,50,61,55,50,100,80,44,30.10,30.05,30.01,10,10,7,12,2,16,0.00,1,,165
2012-10-26,77,62,48,63,55,46,100,85,57,30.07,30.03,29.96,10,9,5,17,3,24,0.00,3,,340
2012-10-27,50,47,44,46,45,43,100,90,76,30.06,30.01,29.96,10,10,3,17,12,25,0.00,8,Rain,360
2012-10-28,57,50,42,45,38,32,93,68,38,30.05,29.98,29.93,10,10,5,22,13,31,0.00,5,,351
2012-10-29,53,43,33,32,29,21,93,60,30,30.09,30.02,29.92,10,10,10,22,11,31,0.00,0,,335
2012-10-30,53,44,35,32,28,23,87,55,30,29.91,29.86,29.80,10,10,10,21,12,30,0.00,0,,299
2012-10-31,60,45,30,36,29,19,100,61,20,29.97,29.92,29.88,10,10,10,14,5,20,0.00,0,,293